KG6SIB Weather Reports


Display with metric or nautical units.
time (UTC)temp
F
wind
direction
speed
MPH
gust
MPH
rain 1hr
in
rain 24hr
in
rain mn
in
humidity
%
barometer
mb
20260507230149 78 234 3.0 12.0 0.00 0.00 0.00 52 1016.6
20260507225649 78 217 4.0 14.0 0.00 0.00 0.00 52 1016.5
20260507225148 77 217 5.0 14.0 0.00 0.00 0.00 52 1016.2
20260507224648 77 215 3.0 11.0 0.00 0.00 0.00 51 1016.3
20260507224148 78 225 3.0 12.0 0.00 0.00 0.00 48 1016.5
20260507223649 78 213 3.0 12.0 0.00 0.00 0.00 49 1016.5
20260507222648 78 261 9.0 12.0 0.00 0.00 0.00 49 1016.5
20260507222148 78 325 0.0 11.0 0.00 0.00 0.00 47 1016.5
20260507221148 78 215 1.0 11.0 0.00 0.00 0.00 47 1016.5
20260507220148 78 226 2.0 9.0 0.00 0.00 0.00 46 1016.7
20260507215648 78 269 1.0 12.0 0.00 0.00 0.00 44 1016.7
20260507215148 79 245 5.0 12.0 0.00 0.00 0.00 46 1016.9
20260507214648 79 240 4.0 11.0 0.00 0.00 0.00 44 1016.9
20260507214147 80 220 6.0 12.0 0.00 0.00 0.00 45 1017.1
20260507213648 80 263 6.0 12.0 0.00 0.00 0.00 45 1017.2
20260507213147 80 230 3.0 10.0 0.00 0.00 0.00 45 1017.3
20260507212647 80 252 3.0 11.0 0.00 0.00 0.00 45 1017.2
20260507212147 80 261 6.0 11.0 0.00 0.00 0.00 45 1017.2
20260507211648 80 261 3.0 8.0 0.00 0.00 0.00 45 1017.3
20260507211147 79 231 6.0 12.0 0.00 0.00 0.00 47 1017.2
20260507210648 79 177 3.0 12.0 0.00 0.00 0.00 45 1017.1
20260507205647 80 347 0.0 11.0 0.00 0.00 0.00 44 1017.3
20260507205147 80 248 1.0 11.0 0.00 0.00 0.00 45 1017.5
20260507204647 80 65 2.0 8.0 0.00 0.00 0.00 44 1017.4
20260507204147 80 233 3.0 8.0 0.00 0.00 0.00 45 1017.6
20260507203647 79 115 2.0 7.0 0.00 0.00 0.00 47 1017.3
20260507203147 79 207 1.0 8.0 0.00 0.00 0.00 46 1017.3
20260507202647 79 248 3.0 8.0 0.00 0.00 0.00 47 1017.4
20260507202147 79 274 0.0 6.0 0.00 0.00 0.00 45 1017.4
20260507201147 79 348 2.0 12.0 0.00 0.00 0.00 45 1017.6
20260507200647 79 244 4.0 12.0 0.00 0.00 0.00 47 1017.5
20260507200147 79 212 5.0 11.0 0.00 0.00 0.00 47 1017.4
20260507195147 79 203 0.0 10.0 0.00 0.00 0.00 45 1017.9
20260507194647 79 213 2.0 10.0 0.00 0.00 0.00 46 1018.0
20260507194146 79 242 5.0 10.0 0.00 0.00 0.00 46 1018.0
20260507193646 78 273 1.0 11.0 0.00 0.00 0.00 45 1017.7
20260507192647 78 192 3.0 11.0 0.00 0.00 0.00 45 1017.8
20260507192147 78 218 3.0 10.0 0.00 0.00 0.00 44 1017.9
20260507191646 78 227 3.0 10.0 0.00 0.00 0.00 46 1017.8
20260507191146 78 245 4.0 10.0 0.00 0.00 0.00 44 1017.8
20260507190646 78 211 4.0 10.0 0.00 0.00 0.00 45 1017.9
20260507190147 79 212 6.0 9.0 0.00 0.00 0.00 46 1018.4
20260507184646 78 207 8.0 11.0 0.00 0.00 0.00 47 1018.3
20260507184146 78 231 3.0 10.0 0.00 0.00 0.00 47 1018.4
20260507183646 78 267 4.0 10.0 0.00 0.00 0.00 44 1018.3
20260507183146 78 174 1.0 9.0 0.00 0.00 0.00 42 1018.4
20260507182646 78 236 3.0 10.0 0.00 0.00 0.00 39 1018.2
20260507182146 79 55 1.0 10.0 0.00 0.00 0.00 41 1018.3
20260507181646 79 150 3.0 9.0 0.00 0.00 0.00 45 1018.4
20260507180645 78 234 3.0 12.0 0.00 0.00 0.00 45 1018.3
20260507180145 79 233 10.0 12.0 0.00 0.00 0.00 44 1018.4
20260507175645 78 238 6.0 10.0 0.00 0.00 0.00 46 1018.5
20260507175146 78 190 3.0 11.0 0.00 0.00 0.00 47 1018.6
20260507174646 77 213 2.0 11.0 0.00 0.00 0.00 47 1018.6
20260507173145 77 244 8.0 10.0 0.00 0.00 0.00 46 1018.6
20260507172146 77 220 7.0 9.0 0.00 0.00 0.00 45 1018.7
20260507171645 76 232 2.0 8.0 0.00 0.00 0.00 47 1018.4
20260507171145 76 186 2.0 5.0 0.00 0.00 0.00 44 1018.4
20260507170645 75 190 1.0 5.0 0.00 0.00 0.00 47 1018.6
20260507170145 75 234 2.0 7.0 0.00 0.00 0.00 46 1018.5
20260507165645 75 202 1.0 7.0 0.00 0.00 0.00 45 1018.5
20260507165145 75 229 0.0 6.0 0.00 0.00 0.00 48 1018.7
20260507164645 75 229 2.0 6.0 0.00 0.00 0.00 47 1018.8
20260507164145 74 182 2.0 8.0 0.00 0.00 0.00 46 1018.7
20260507163145 74 200 2.0 8.0 0.00 0.00 0.00 46 1018.8
20260507162644 74 227 2.0 8.0 0.00 0.00 0.00 46 1018.7
20260507162145 74 231 6.0 6.0 0.00 0.00 0.00 46 1018.7
20260507161644 74 194 0.0 6.0 0.00 0.00 0.00 46 1018.7
20260507161144 74 244 0.0 6.0 0.00 0.00 0.00 43 1018.7
20260507160645 73 227 0.0 6.0 0.00 0.00 0.00 47 1018.5
20260507160145 73 248 4.0 5.0 0.00 0.00 0.00 46 1018.6
20260507155644 72 215 1.0 4.0 0.00 0.00 0.00 46 1018.7
20260507155144 72 151 1.0 2.0 0.00 0.00 0.00 47 1018.7
20260507154644 71 137 0.0 1.0 0.00 0.00 0.00 49 1018.6
20260507154144 71 137 0.0 3.0 0.00 0.00 0.00 50 1018.7
20260507153644 70 136 0.0 3.0 0.00 0.00 0.00 51 1018.7
20260507152644 68 129 0.0 2.0 0.00 0.00 0.00 52 1018.3
20260507152144 67 71 0.0 0.0 0.00 0.00 0.00 51 1018.1
20260507151644 66 71 0.0 0.0 0.00 0.00 0.00 62 1018.2
20260507151144 66 71 0.0 0.0 0.00 0.00 0.00 62 1018.2
20260507150644 65 71 0.0 0.0 0.00 0.00 0.00 72 1018.0
20260507145144 61 71 0.0 3.0 0.00 0.00 0.00 69 1018.1
20260507144644 60 74 1.0 5.0 0.00 0.00 0.00 68 1018.0
20260507144143 59 57 1.0 5.0 0.00 0.00 0.00 71 1017.9
20260507143644 58 76 3.0 5.0 0.00 0.00 0.00 72 1017.8
20260507143143 57 71 3.0 5.0 0.00 0.00 0.00 75 1017.6
20260507142643 56 65 3.0 5.0 0.00 0.00 0.00 76 1017.6
20260507142143 54 46 2.0 6.0 0.00 0.00 0.00 78 1017.3
20260507141643 53 67 3.0 6.0 0.00 0.00 0.00 77 1017.1
20260507141143 52 61 5.0 8.0 0.00 0.00 0.00 79 1017.1
20260507140143 50 34 5.0 6.0 0.00 0.00 0.00 79 1016.8
20260507135643 49 61 6.0 8.0 0.00 0.00 0.00 80 1017.1
20260507135143 49 62 4.0 8.0 0.00 0.00 0.00 81 1017.1
20260507134643 48 48 4.0 7.0 0.00 0.00 0.00 82 1017.2
20260507134142 47 53 4.0 7.0 0.00 0.00 0.00 83 1016.9
20260507133643 46 44 6.0 7.0 0.00 0.00 0.00 83 1016.9
20260507133143 46 65 5.0 6.0 0.00 0.00 0.00 82 1016.9
20260507132643 46 50 6.0 7.0 0.00 0.00 0.00 82 1016.9
20260507132143 46 32 4.0 9.0 0.00 0.00 0.00 82 1016.8
20260507131643 46 56 5.0 9.0 0.00 0.00 0.00 82 1016.9
20260507131143 45 40 5.0 6.0 0.00 0.00 0.00 82 1016.5
20260507130643 45 65 4.0 7.0 0.00 0.00 0.00 82 1016.3
20260507130143 45 65 4.0 7.0 0.00 0.00 0.00 82 1016.3
20260507125643 45 57 5.0 7.0 0.00 0.00 0.00 83 1016.8
20260507125143 45 46 6.0 8.0 0.00 0.00 0.00 83 1016.8
20260507124642 45 43 4.0 8.0 0.00 0.00 0.00 83 1016.8
20260507124142 45 56 4.0 6.0 0.00 0.00 0.00 83 1016.8
20260507123642 45 57 4.0 5.0 0.00 0.00 0.00 83 1016.8
20260507123142 45 65 4.0 7.0 0.00 0.00 0.00 83 1016.8
20260507122642 46 65 5.0 7.0 0.00 0.00 0.00 83 1017.0
20260507122142 46 60 4.0 7.0 0.00 0.00 0.00 83 1017.0
20260507121142 45 38 4.0 6.0 0.00 0.00 0.00 83 1016.8
20260507120642 45 57 3.0 5.0 0.00 0.00 0.00 84 1016.8
20260507120142 45 63 4.0 7.0 0.00 0.00 0.00 84 1016.7
20260507115141 45 57 4.0 8.0 0.00 0.00 0.00 84 1017.2
20260507114642 45 62 5.0 8.0 0.00 0.00 0.00 84 1017.1
20260507114141 45 48 6.0 8.0 0.00 0.00 0.00 84 1017.2
20260507113642 45 47 5.0 6.0 0.00 0.00 0.00 84 1017.2
20260507112641 45 46 5.0 8.0 0.00 0.00 0.00 85 1017.3
20260507111641 45 47 3.0 8.0 0.00 0.00 0.00 86 1017.3
20260507111141 45 75 5.0 8.0 0.00 0.00 0.00 86 1017.3
20260507110641 45 71 2.0 8.0 0.00 0.00 0.00 87 1017.5
20260507105641 44 55 5.0 7.0 0.00 0.00 0.00 87 1017.7
20260507105141 44 30 6.0 7.0 0.00 0.00 0.00 87 1017.7
20260507104641 44 43 5.0 8.0 0.00 0.00 0.00 87 1017.7
20260507104141 44 69 4.0 9.0 0.00 0.00 0.00 88 1017.7
20260507103641 44 41 4.0 9.0 0.00 0.00 0.00 88 1017.7
20260507103141 44 41 6.0 8.0 0.00 0.00 0.00 88 1017.8
20260507102141 44 57 4.0 7.0 0.00 0.00 0.00 88 1017.9
20260507101641 44 68 4.0 6.0 0.00 0.00 0.00 89 1017.8
20260507101140 44 74 4.0 6.0 0.00 0.00 0.00 89 1017.8
20260507100641 44 71 4.0 7.0 0.00 0.00 0.00 89 1017.7
20260507100141 44 54 4.0 7.0 0.00 0.00 0.00 90 1017.8
20260507095640 44 63 5.0 9.0 0.00 0.00 0.00 90 1017.9
20260507095141 44 49 4.0 9.0 0.00 0.00 0.00 90 1017.9
20260507094641 44 51 4.0 8.0 0.00 0.00 0.00 90 1018.0
20260507094140 44 40 5.0 6.0 0.00 0.00 0.00 90 1018.0
20260507093640 44 30 3.0 6.0 0.00 0.00 0.00 90 1018.1
20260507093141 44 34 5.0 7.0 0.00 0.00 0.00 90 1018.2
20260507092641 44 66 4.0 7.0 0.00 0.00 0.00 89 1018.2
20260507092140 44 60 4.0 7.0 0.00 0.00 0.00 89 1018.2
20260507090640 44 42 4.0 6.0 0.00 0.00 0.00 90 1018.5
20260507090140 44 48 4.0 6.0 0.00 0.00 0.00 90 1018.6
20260507085640 44 63 4.0 6.0 0.00 0.00 0.00 90 1018.7
20260507085140 44 47 3.0 7.0 0.00 0.00 0.00 90 1018.6
20260507084640 44 32 4.0 7.0 0.00 0.00 0.00 90 1018.7
20260507084140 44 42 6.0 7.0 0.00 0.00 0.00 90 1018.7
20260507083640 44 28 5.0 7.0 0.00 0.00 0.00 90 1018.7
20260507083140 45 54 4.0 7.0 0.00 0.00 0.00 90 1018.8
20260507082639 45 67 4.0 7.0 0.00 0.00 0.00 90 1018.8
20260507081640 45 53 3.0 6.0 0.00 0.00 0.00 90 1018.9
20260507080639 45 58 4.0 6.0 0.00 0.00 0.00 90 1018.9
20260507080139 45 43 4.0 6.0 0.00 0.00 0.00 90 1018.9
20260507075639 45 21 5.0 6.0 0.00 0.00 0.00 90 1018.6
20260507075139 45 25 4.0 6.0 0.00 0.00 0.00 90 1018.6
20260507074639 45 40 5.0 6.0 0.00 0.00 0.00 90 1018.5
20260507074139 45 49 5.0 7.0 0.00 0.00 0.00 90 1018.6
20260507073639 45 61 4.0 7.0 0.00 0.00 0.00 90 1018.6
20260507073139 45 42 4.0 7.0 0.00 0.00 0.00 90 1018.6
20260507072639 46 78 5.0 6.0 0.00 0.00 0.00 90 1018.8
20260507071139 46 62 3.0 7.0 0.00 0.00 0.00 90 1019.0
20260507070138 46 64 3.0 6.0 0.00 0.00 0.00 89 1019.0
20260507065638 46 69 3.0 5.0 0.00 0.00 0.00 89 1018.6
20260507065139 46 49 3.0 5.0 0.00 0.00 0.00 89 1018.6
20260507064138 46 33 0.0 6.0 0.00 0.00 0.00 89 1018.6
20260507063638 47 44 4.0 6.0 0.00 0.00 0.00 89 1018.9
20260507063138 47 16 2.0 7.0 0.00 0.00 0.00 89 1018.8
20260507062638 47 59 5.0 7.0 0.00 0.00 0.00 89 1018.9
20260507062138 47 36 2.0 8.0 0.00 0.00 0.00 89 1019.0
20260507061638 47 31 6.0 8.0 0.00 0.00 0.00 89 1019.0
20260507061138 47 13 3.0 8.0 0.00 0.00 0.00 89 1018.9
20260507060638 47 39 4.0 6.0 0.00 0.00 0.00 89 1019.0
20260507060138 47 52 3.0 7.0 0.00 0.00 0.00 90 1018.9
20260507055638 47 32 5.0 7.0 0.00 0.00 0.00 90 1018.4
20260507055138 47 36 5.0 5.0 0.00 0.00 0.00 90 1018.4
20260507054638 47 45 3.0 5.0 0.00 0.00 0.00 89 1018.4
20260507054137 47 31 3.0 6.0 0.00 0.00 0.00 90 1018.3
20260507053638 48 44 3.0 6.0 0.00 0.00 0.00 90 1018.7
20260507053137 48 38 2.0 5.0 0.00 0.00 0.00 90 1018.6
20260507052638 48 63 5.0 5.0 0.00 0.00 0.00 90 1018.6
20260507051638 48 24 4.0 5.0 0.00 0.00 0.00 90 1018.6
20260507051137 48 40 3.0 7.0 0.00 0.00 0.00 90 1018.7
20260507050637 48 41 5.0 7.0 0.00 0.00 0.00 90 1018.7
20260507050137 48 63 2.0 6.0 0.00 0.00 0.00 90 1018.7
20260507045637 48 42 2.0 6.0 0.00 0.00 0.00 89 1018.2
20260507045137 48 68 3.0 5.0 0.00 0.00 0.00 89 1018.2
20260507044637 48 53 4.0 7.0 0.00 0.00 0.00 89 1018.4
20260507044137 48 51 3.0 7.0 0.00 0.00 0.00 89 1018.3
20260507043637 49 52 2.0 7.0 0.00 0.00 0.00 89 1018.6
20260507043137 49 76 3.0 6.0 0.00 0.00 0.00 89 1018.6
20260507042637 49 35 5.0 6.0 0.00 0.00 0.00 88 1018.7
20260507041637 49 44 2.0 5.0 0.00 0.00 0.00 88 1018.6
20260507040137 50 37 0.0 4.0 0.00 0.00 0.00 87 1018.5
20260507035637 50 45 4.0 5.0 0.00 0.00 0.00 87 1017.9
20260507035136 50 47 2.0 5.0 0.00 0.00 0.00 87 1017.9
20260507034637 51 53 3.0 4.0 0.00 0.00 0.00 86 1017.8
20260507034137 51 55 4.0 4.0 0.00 0.00 0.00 86 1017.7
20260507033136 52 59 1.0 5.0 0.00 0.00 0.00 85 1018.0
20260507032637 52 66 2.0 4.0 0.00 0.00 0.00 85 1018.0
20260507031636 53 79 2.0 5.0 0.00 0.00 0.00 83 1018.0
20260507031136 53 5 2.0 4.0 0.00 0.00 0.00 83 1018.0
20260507030636 54 347 2.0 3.0 0.00 0.00 0.00 82 1018.1
20260507025136 55 244 0.0 1.0 0.00 0.00 0.00 81 1017.1
20260507024636 56 244 0.0 1.0 0.00 0.00 0.00 80 1017.0
20260507023636 57 244 0.0 4.0 0.00 0.00 0.00 79 1017.3
20260507023136 57 244 0.0 4.0 0.00 0.00 0.00 79 1017.2
20260507022136 58 245 2.0 4.0 0.00 0.00 0.00 78 1017.1
20260507021636 59 245 2.0 5.0 0.00 0.00 0.00 77 1017.4
20260507021136 59 243 0.0 5.0 0.00 0.00 0.00 77 1017.4
20260507020636 59 242 4.0 7.0 0.00 0.00 0.00 76 1017.3
20260507020135 60 231 4.0 7.0 0.00 0.00 0.00 75 1017.4
20260507015635 60 234 1.0 5.0 0.00 0.00 0.00 75 1016.6
20260507015135 60 234 0.0 5.0 0.00 0.00 0.00 74 1016.6
20260507014635 61 225 0.0 6.0 0.00 0.00 0.00 74 1016.8
20260507014136 61 232 5.0 6.0 0.00 0.00 0.00 73 1016.8
20260507013635 61 241 0.0 6.0 0.00 0.00 0.00 73 1016.7
20260507013135 62 240 2.0 7.0 0.00 0.00 0.00 71 1016.6
20260507012635 62 248 2.0 7.0 0.00 0.00 0.00 71 1016.7
20260507011635 63 244 1.0 7.0 0.00 0.00 0.00 70 1017.1
20260507011135 63 217 0.0 7.0 0.00 0.00 0.00 70 1017.1
20260507010635 63 232 1.0 11.0 0.00 0.00 0.00 69 1017.0
20260507010135 64 214 6.0 11.0 0.00 0.00 0.00 67 1017.0
20260507005635 64 234 3.0 9.0 0.00 0.00 0.00 66 1016.5
20260507005135 65 223 5.0 9.0 0.00 0.00 0.00 66 1016.5
20260507004635 65 254 0.0 8.0 0.00 0.00 0.00 65 1016.5
20260507004135 65 235 0.0 8.0 0.00 0.00 0.00 64 1016.6
20260507003635 66 241 1.0 9.0 0.00 0.00 0.00 65 1016.8
20260507003135 66 222 4.0 10.0 0.00 0.00 0.00 63 1016.7
20260507002634 66 257 3.0 10.0 0.00 0.00 0.00 63 1016.6
20260507002135 66 225 2.0 9.0 0.00 0.00 0.00 62 1016.6
20260507001635 67 230 2.0 11.0 0.00 0.00 0.00 61 1016.6
20260507001134 67 211 2.0 11.0 0.00 0.00 0.00 63 1016.7
20260507000635 67 195 3.0 9.0 0.00 0.00 0.00 61 1016.6
20260507000134 67 257 2.0 13.0 0.00 0.00 0.00 61 1016.5
20260506235634 68 161 4.0 13.0 0.00 0.00 0.00 59 1016.8
20260506235134 69 237 4.0 11.0 0.00 0.00 0.00 59 1016.9
20260506234634 69 238 6.0 12.0 0.00 0.00 0.00 59 1016.9
20260506234134 69 218 3.0 12.0 0.00 0.00 0.00 59 1016.9
20260506233634 69 202 1.0 10.0 0.00 0.00 0.00 60 1017.0
20260506233134 69 221 5.0 10.0 0.00 0.00 0.00 59 1016.9
20260506232634 69 244 5.0 9.0 0.00 0.00 0.00 59 1016.9
20260506232134 69 227 6.0 10.0 0.00 0.00 0.00 59 1016.9
20260506231634 69 242 1.0 10.0 0.00 0.00 0.00 57 1016.9
20260506231134 70 227 5.0 12.0 0.00 0.00 0.00 56 1017.0